TimeCDT,TemperatureF,Dew PointF,Humidity,Sea Level PressureIn,VisibilityMPH,Wind Direction,Wind SpeedMPH,Gust SpeedMPH,PrecipitationIn,Events,Conditions,WindDirDegrees,DateUTC
12:28 AM,71.6,66.2,83,30.08,10.0,East,10.4,-,0.00,Thunderstorm,Overcast,100,2013-10-13 05:28:00
12:51 AM,71.1,66.9,87,30.02,10.0,SSE,3.5,-,0.01,Rain-Thunderstorm,Light Rain,150,2013-10-13 05:51:00
1:10 AM,69.8,66.2,88,30.07,10.0,ENE,4.6,-,0.01,Rain,Light Rain,60,2013-10-13 06:10:00
1:51 AM,70.0,68.0,93,30.01,10.0,ENE,8.1,-,0.02,Rain,Light Rain,60,2013-10-13 06:51:00
2:51 AM,69.1,66.9,93,30.00,10.0,East,4.6,-,0.00,,Mostly Cloudy,90,2013-10-13 07:51:00
3:51 AM,70.0,66.0,87,30.01,10.0,Calm,Calm,-,N/A,,Overcast,0,2013-10-13 08:51:00
4:16 AM,69.8,66.2,88,30.08,10.0,Calm,Calm,-,N/A,,Overcast,0,2013-10-13 09:16:00
4:51 AM,70.0,66.0,87,30.01,10.0,East,6.9,-,N/A,,Overcast,100,2013-10-13 09:51:00
5:51 AM,69.1,66.0,90,30.03,10.0,ENE,8.1,-,N/A,,Overcast,70,2013-10-13 10:51:00
6:51 AM,69.1,66.9,93,30.04,10.0,Calm,Calm,-,0.01,Rain,Light Rain,0,2013-10-13 11:51:00
7:06 AM,69.8,66.2,88,30.10,10.0,East,4.6,-,0.00,Rain-Thunderstorm,Light Rain,90,2013-10-13 12:06:00
7:51 AM,69.1,66.9,93,30.06,10.0,East,4.6,-,0.00,Thunderstorm,Overcast,100,2013-10-13 12:51:00
8:05 AM,69.8,66.2,88,30.12,10.0,East,5.8,-,N/A,Thunderstorm,Overcast,100,2013-10-13 13:05:00
8:51 AM,66.9,63.0,87,30.09,10.0,ESE,8.1,-,N/A,Thunderstorm,Overcast,110,2013-10-13 13:51:00
9:31 AM,66.2,64.4,94,30.17,1.8,East,12.7,-,0.10,Rain-Thunderstorm,Heavy Rain,100,2013-10-13 14:31:00
9:39 AM,66.2,66.2,100,30.17,3.0,East,15.0,-,0.16,Rain-Thunderstorm,Rain,100,2013-10-13 14:39:00
9:51 AM,66.9,66.0,97,30.11,10.0,ESE,15.0,-,0.16,Rain-Thunderstorm,Light Rain,110,2013-10-13 14:51:00
10:41 AM,66.2,64.4,94,30.18,2.0,ESE,12.7,-,0.08,Rain-Thunderstorm,Rain,120,2013-10-13 15:41:00
10:51 AM,66.9,64.0,90,30.14,4.0,ESE,13.8,18.4,0.09,Rain-Thunderstorm,Light Rain,120,2013-10-13 15:51:00
11:03 AM,66.2,64.4,94,30.18,1.8,ESE,18.4,-,0.06,Rain-Thunderstorm,Heavy Rain,110,2013-10-13 16:03:00
11:24 AM,68.0,66.2,94,30.16,3.0,East,12.7,-,0.23,Rain-Thunderstorm,Rain,100,2013-10-13 16:24:00
11:47 AM,69.8,66.2,88,30.15,10.0,East,11.5,-,0.23,Rain,Light Rain,100,2013-10-13 16:47:00
11:51 AM,70.0,66.0,87,30.10,10.0,ESE,8.1,-,0.23,,Overcast,110,2013-10-13 16:51:00
12:51 PM,73.0,66.9,81,30.09,10.0,ESE,5.8,-,N/A,,Mostly Cloudy,120,2013-10-13 17:51:00
1:51 PM,75.9,64.9,69,30.02,10.0,SSE,12.7,21.9,N/A,,Mostly Cloudy,150,2013-10-13 18:51:00
2:51 PM,79.0,66.9,66,30.00,10.0,East,11.5,-,N/A,,Mostly Cloudy,90,2013-10-13 19:51:00
3:51 PM,75.9,69.1,79,30.00,10.0,NE,9.2,-,N/A,,Mostly Cloudy,40,2013-10-13 20:51:00
4:51 PM,75.0,69.1,82,30.00,10.0,ENE,13.8,-,N/A,,Mostly Cloudy,60,2013-10-13 21:51:00
5:51 PM,73.0,68.0,84,30.02,10.0,ENE,13.8,-,N/A,,Mostly Cloudy,70,2013-10-13 22:51:00
6:51 PM,72.0,66.0,81,30.04,10.0,East,13.8,-,N/A,,Partly Cloudy,90,2013-10-13 23:51:00
7:51 PM,71.1,66.0,84,30.05,10.0,East,12.7,-,N/A,,Mostly Cloudy,80,2013-10-14 00:51:00
8:51 PM,70.0,66.0,87,30.08,10.0,East,10.4,-,N/A,,Overcast,90,2013-10-14 01:51:00
9:51 PM,70.0,66.0,87,30.09,10.0,East,10.4,-,N/A,,Overcast,90,2013-10-14 02:51:00
10:51 PM,70.0,66.0,87,30.10,10.0,East,6.9,-,N/A,,Overcast,90,2013-10-14 03:51:00
11:51 PM,69.1,66.9,93,30.09,8.0,East,5.8,-,0.01,Rain,Light Rain,80,2013-10-14 04:51:00